TimeAST,TemperatureF,Dew PointF,Humidity,Sea Level PressureIn,VisibilityMPH,Wind Direction,Wind SpeedMPH,Gust SpeedMPH,PrecipitationIn,Events,Conditions,WindDirDegrees,DateUTC
12:55 AM,78.6,72.9,82,29.76,6.2,WSW,4.6,-,N/A,,Clear,240,2012-10-04 21:55:00
1:55 AM,78.1,73.6,86,29.75,6.2,SSW,3.5,-,N/A,,Clear,200,2012-10-04 22:55:00
2:55 AM,76.1,71.4,85,29.76,6.2,WSW,4.6,-,N/A,,Clear,240,2012-10-04 23:55:00
3:55 AM,74.8,70.9,87,29.77,6.2,WSW,4.6,-,N/A,,Clear,250,2012-10-05 00:55:00
4:55 AM,75.0,73.0,94,29.78,5.0,Calm,Calm,-,N/A,,Mist,0,2012-10-05 01:55:00
5:30 AM,77.0,73.4,89,29.79,2.5,NNW,5.8,-,N/A,,Clear,340,2012-10-05 02:30:00
5:36 AM,77.0,73.4,89,29.79,-9999.0,North,6.9,-,N/A,,Clear,350,2012-10-05 02:36:00
5:55 AM,77.0,73.6,89,29.81,-9999.0,North,3.5,-,N/A,,Clear,350,2012-10-05 02:55:00
6:45 AM,78.8,75.2,89,29.81,3.1,NNE,4.6,-,N/A,,Clear,20,2012-10-05 03:45:00
6:55 AM,80.1,75.4,86,29.83,3.1,North,4.6,-,N/A,,Clear,10,2012-10-05 03:55:00
7:55 AM,85.6,73.9,68,29.84,6.2,NNE,4.6,-,N/A,,Clear,20,2012-10-05 04:55:00
8:55 AM,90.5,71.8,54,29.84,6.2,Calm,Calm,-,N/A,,Clear,0,2012-10-05 05:55:00
9:55 AM,95.0,61.0,32,29.84,6.2,Variable,4.6,-,N/A,,Clear,0,2012-10-05 06:55:00
10:55 AM,97.3,60.3,29,29.83,6.2,Calm,Calm,-,N/A,,Clear,0,2012-10-05 07:55:00
11:55 AM,99.1,60.8,28,29.81,6.2,Variable,3.5,-,N/A,,Clear,0,2012-10-05 08:55:00
12:55 PM,101.5,55.6,22,29.78,6.2,Variable,3.5,-,N/A,,Clear,0,2012-10-05 09:55:00
1:55 PM,102.0,50.2,17,29.76,6.2,Calm,Calm,-,N/A,,Clear,0,2012-10-05 10:55:00
2:55 PM,102.4,43.5,13,29.75,6.2,Calm,Calm,-,N/A,,Clear,0,2012-10-05 11:55:00
3:55 PM,99.0,59.0,26,29.76,6.2,East,11.5,-,N/A,,Clear,80,2012-10-05 12:55:00
4:55 PM,96.4,57.9,28,29.77,6.2,East,11.5,-,N/A,,Clear,80,2012-10-05 13:55:00
5:55 PM,93.0,64.2,38,29.78,6.2,East,6.9,-,N/A,,Clear,100,2012-10-05 14:55:00
6:55 PM,89.4,72.5,57,29.80,6.2,East,10.4,-,N/A,,Clear,100,2012-10-05 15:55:00
7:55 PM,87.4,73.0,62,29.80,6.2,East,8.1,-,N/A,,Clear,90,2012-10-05 16:55:00
8:55 PM,85.6,73.4,67,29.81,6.2,East,6.9,-,N/A,,Clear,80,2012-10-05 17:55:00
9:55 PM,84.9,73.8,69,29.81,6.2,Variable,5.8,-,N/A,,Clear,0,2012-10-05 18:55:00
10:55 PM,84.7,74.3,71,29.81,6.2,Variable,4.6,-,N/A,,Clear,0,2012-10-05 19:55:00
11:55 PM,84.0,73.9,72,29.80,6.2,Calm,Calm,-,N/A,,Clear,0,2012-10-05 20:55:00